When you browse on this site, cookies collect data to enhance your experience and personalize the content and advertising you see.
Visit our Privacy Policy to learn more. By continuing to use the site, you agree to this use of cookies and data.
  • en France
  • Liste des pays
  • À 7 jours
  • Température de l'eau
  • Carte satellitaire
  • Carte météo
  • Widgets météo
  • user-avatar
    Se connecter

    Météo par heure à Buenos Aires

    Ce jour, 18 Juillet, Jeudi

    Heure Température Précipitation Vent Pression Humidité
    00:00 +24°C° 0 mm 1 m/s 717 mmHg 89%
    01:00 +24°C° 0 mm 1 m/s 716 mmHg 88%
    02:00 +24°C° 0 mm 1 m/s 716 mmHg 88%
    03:00 +23°C° 0 mm 1 m/s 716 mmHg 87%
    04:00 +23°C° 0 mm 1 m/s 716 mmHg 87%
    05:00 +23°C° 0 mm 1 m/s 716 mmHg 86%
    06:00 +23°C° 0 mm 0 m/s 716 mmHg 84%
    07:00 +24°C° 0 mm 0 m/s 717 mmHg 82%
    08:00 +25°C° 0 mm 0 m/s 717 mmHg 80%
    09:00 +27°C° 0.1 mm 0 m/s 717 mmHg 73%
    10:00 +31°C° 0.1 mm 1 m/s 717 mmHg 66%
    11:00 +33°C° 0.1 mm 1 m/s 717 mmHg 59%
    12:00 +34°C° 0.1 mm 1 m/s 716 mmHg 57%
    13:00 +34°C° 0.1 mm 1 m/s 716 mmHg 54%
    14:00 +35°C° 0.1 mm 1 m/s 715 mmHg 52%
    15:00 +34°C° 0.1 mm 1 m/s 715 mmHg 56%
    16:00 +33°C° 0.1 mm 1 m/s 714 mmHg 61%
    17:00 +32°C° 0.1 mm 1 m/s 714 mmHg 66%
    18:00 +30°C° 0.1 mm 1 m/s 715 mmHg 68%
    19:00 +29°C° 0.1 mm 1 m/s 715 mmHg 70%
    20:00 +27°C° 0.1 mm 1 m/s 716 mmHg 73%
    21:00 +26°C° 0.3 mm 1 m/s 716 mmHg 76%
    22:00 +25°C° 0.3 mm 1 m/s 716 mmHg 79%
    23:00 +25°C° 0.3 mm 1 m/s 716 mmHg 83%

    Demain, 19 Juillet, Vendredi

    Heure Température Précipitation Vent Pression Humidité
    00:00 +25°C° 0.1 mm 1 m/s 716 mmHg 83%
    01:00 +24°C° 0.1 mm 1 m/s 716 mmHg 83%
    02:00 +24°C° 0.1 mm 1 m/s 715 mmHg 82%
    03:00 +22°C° 0.1 mm 0 m/s 715 mmHg 83%
    04:00 +22°C° 0.1 mm 0 m/s 715 mmHg 84%
    05:00 +21°C° 0.1 mm 0 m/s 715 mmHg 86%
    06:00 +23°C° 0 mm 0 m/s 716 mmHg 82%
    07:00 +24°C° 0 mm 0 m/s 716 mmHg 79%
    08:00 +26°C° 0 mm 0 m/s 717 mmHg 76%
    09:00 +29°C° 0.3 mm 1 m/s 717 mmHg 72%
    10:00 +31°C° 0.3 mm 1 m/s 716 mmHg 67%
    11:00 +32°C° 0.3 mm 1 m/s 716 mmHg 62%
    12:00 +33°C° 0.4 mm 1 m/s 716 mmHg 60%
    13:00 +34°C° 0.4 mm 1 m/s 715 mmHg 57%
    14:00 +32°C° 0.4 mm 0 m/s 714 mmHg 54%
    15:00 +33°C° 0.5 mm 1 m/s 714 mmHg 59%
    16:00 +32°C° 0.5 mm 1 m/s 714 mmHg 64%
    17:00 +31°C° 0.5 mm 1 m/s 714 mmHg 70%
    18:00 +29°C° 2 mm 1 m/s 714 mmHg 78%
    19:00 +26°C° 2 mm 1 m/s 715 mmHg 86%
    20:00 +24°C° 2 mm 1 m/s 715 mmHg 93%
    21:00 +24°C° 2.9 mm 1 m/s 716 mmHg 94%
    22:00 +24°C° 2.9 mm 1 m/s 716 mmHg 95%
    23:00 +24°C° 2.9 mm 1 m/s 717 mmHg 96%

    Après-demain, 20 Juillet, Samedi

    Heure Température Précipitation Vent Pression Humidité
    00:00 +22°C° 1.1 mm 0 m/s 716 mmHg 96%
    01:00 +22°C° 1.1 mm 0 m/s 716 mmHg 96%
    02:00 +21°C° 1.1 mm 0 m/s 716 mmHg 96%
    03:00 +21°C° 0.9 mm 0 m/s 716 mmHg 96%
    04:00 +21°C° 0.9 mm 0 m/s 715 mmHg 96%
    05:00 +21°C° 0.9 mm 0 m/s 715 mmHg 97%
    06:00 +22°C° 0.2 mm 0 m/s 716 mmHg 95%
    07:00 +22°C° 0.2 mm 0 m/s 716 mmHg 94%
    08:00 +23°C° 0.2 mm 0 m/s 717 mmHg 92%
    09:00 +24°C° 0.1 mm 0 m/s 716 mmHg 86%
    10:00 +26°C° 0.1 mm 0 m/s 716 mmHg 79%
    11:00 +28°C° 0.1 mm 0 m/s 716 mmHg 72%
    12:00 +29°C° 0.5 mm 0 m/s 716 mmHg 70%
    13:00 +29°C° 0.5 mm 0 m/s 715 mmHg 68%
    14:00 +32°C° 0.5 mm 1 m/s 714 mmHg 66%
    15:00 +30°C° 0.8 mm 1 m/s 714 mmHg 72%
    16:00 +29°C° 0.8 mm 1 m/s 714 mmHg 78%
    17:00 +28°C° 0.8 mm 1 m/s 714 mmHg 84%
    18:00 +27°C° 0.5 mm 1 m/s 714 mmHg 86%
    19:00 +24°C° 0.5 mm 0 m/s 715 mmHg 88%
    20:00 +22°C° 0.5 mm 0 m/s 715 mmHg 90%
    21:00 +22°C° 0.5 mm 0 m/s 715 mmHg 91%
    22:00 +24°C° 0.5 mm 1 m/s 716 mmHg 92%
    23:00 +24°C° 0.5 mm 1 m/s 716 mmHg 94%

    21 Juillet, Dimanche

    Heure Température Précipitation Vent Pression Humidité
    00:00 +24°C° 0.4 mm 1 m/s 716 mmHg 93%
    01:00 +24°C° 0.4 mm 1 m/s 715 mmHg 93%
    02:00 +23°C° 0.4 mm 1 m/s 715 mmHg 93%
    03:00 +23°C° 0.1 mm 1 m/s 715 mmHg 94%
    04:00 +21°C° 0.1 mm 0 m/s 715 mmHg 94%
    05:00 +21°C° 0.1 mm 0 m/s 715 mmHg 94%
    06:00 +22°C° 0 mm 0 m/s 716 mmHg 91%
    07:00 +23°C° 0 mm 0 m/s 717 mmHg 88%
    08:00 +24°C° 0 mm 0 m/s 717 mmHg 85%
    09:00 +26°C° 0.3 mm 0 m/s 717 mmHg 79%
    10:00 +28°C° 0.3 mm 0 m/s 717 mmHg 73%
    11:00 +32°C° 0.3 mm 1 m/s 717 mmHg 67%
    12:00 +30°C° 0.3 mm 0 m/s 717 mmHg 64%
    13:00 +31°C° 0.3 mm 0 m/s 716 mmHg 60%
    14:00 +32°C° 0.3 mm 0 m/s 716 mmHg 56%
    15:00 +33°C° 0.1 mm 1 m/s 715 mmHg 61%
    16:00 +32°C° 0.1 mm 1 m/s 715 mmHg 66%
    17:00 +31°C° 0.1 mm 1 m/s 715 mmHg 70%
    18:00 +29°C° 0 mm 1 m/s 715 mmHg 74%
    19:00 +27°C° 0 mm 1 m/s 716 mmHg 77%
    20:00 +25°C° 0 mm 1 m/s 716 mmHg 80%
    21:00 +25°C° 0 mm 1 m/s 716 mmHg 79%
    22:00 +25°C° 0 mm 1 m/s 716 mmHg 78%
    23:00 +24°C° 0 mm 1 m/s 717 mmHg 78%

    22 Juillet, Lundi

    Heure Température Précipitation Vent Pression Humidité
    00:00 +24°C° 0 mm 1 m/s 716 mmHg 76%
    01:00 +24°C° 0 mm 1 m/s 716 mmHg 75%
    02:00 +24°C° 0 mm 1 m/s 716 mmHg 74%
    03:00 +24°C° 0 mm 1 m/s 716 mmHg 74%
    04:00 +22°C° 0 mm 0 m/s 716 mmHg 74%
    05:00 +21°C° 0 mm 0 m/s 716 mmHg 74%
    06:00 +23°C° 0 mm 0 m/s 716 mmHg 72%
    07:00 +25°C° 0 mm 0 m/s 717 mmHg 70%
    08:00 +26°C° 0 mm 0 m/s 717 mmHg 67%
    09:00 +28°C° 0.1 mm 0 m/s 717 mmHg 64%
    10:00 +32°C° 0.1 mm 1 m/s 717 mmHg 60%
    11:00 +33°C° 0.1 mm 1 m/s 717 mmHg 57%
    12:00 +34°C° 0.1 mm 1 m/s 716 mmHg 55%
    13:00 +34°C° 0.1 mm 1 m/s 716 mmHg 52%
    14:00 +33°C° 0.1 mm 0 m/s 715 mmHg 50%
    15:00 +32°C° 0.1 mm 0 m/s 715 mmHg 54%
    16:00 +33°C° 0.1 mm 1 m/s 715 mmHg 58%
    17:00 +32°C° 0.1 mm 1 m/s 714 mmHg 62%
    18:00 +30°C° 0 mm 1 m/s 715 mmHg 64%
    19:00 +29°C° 0 mm 1 m/s 715 mmHg 66%
    20:00 +27°C° 0 mm 1 m/s 716 mmHg 68%
    21:00 +27°C° 0.1 mm 1 m/s 716 mmHg 69%
    22:00 +26°C° 0.1 mm 1 m/s 716 mmHg 70%
    23:00 +26°C° 0.1 mm 1 m/s 717 mmHg 72%

    23 Juillet, Mardi

    Heure Température Précipitation Vent Pression Humidité
    00:00 +25°C° 0.6 mm 1 m/s 716 mmHg 75%
    01:00 +25°C° 0.6 mm 1 m/s 716 mmHg 79%
    02:00 +24°C° 0.6 mm 1 m/s 716 mmHg 82%
    03:00 +24°C° 1 mm 1 m/s 716 mmHg 85%
    04:00 +22°C° 1 mm 0 m/s 716 mmHg 87%
    05:00 +21°C° 1 mm 0 m/s 716 mmHg 89%
    06:00 +21°C° 0.7 mm 0 m/s 717 mmHg 90%
    07:00 +22°C° 0.7 mm 0 m/s 717 mmHg 91%
    08:00 +22°C° 0.7 mm 0 m/s 718 mmHg 92%
    09:00 +23°C° 0.1 mm 0 m/s 717 mmHg 90%
    10:00 +23°C° 0.1 mm 0 m/s 717 mmHg 88%
    11:00 +24°C° 0.1 mm 0 m/s 717 mmHg 86%
    12:00 +25°C° 0.1 mm 0 m/s 716 mmHg 79%
    13:00 +29°C° 0.1 mm 1 m/s 716 mmHg 72%
    14:00 +31°C° 0.1 mm 1 m/s 715 mmHg 65%
    15:00 +30°C° 0.3 mm 1 m/s 715 mmHg 68%
    16:00 +28°C° 0.3 mm 0 m/s 715 mmHg 70%
    17:00 +27°C° 0.3 mm 0 m/s 714 mmHg 72%
    18:00 +26°C° 0.4 mm 0 m/s 715 mmHg 75%
    19:00 +27°C° 0.4 mm 1 m/s 715 mmHg 77%
    20:00 +26°C° 0.4 mm 1 m/s 715 mmHg 80%
    21:00 +25°C° 0.2 mm 1 m/s 716 mmHg 80%
    22:00 +25°C° 0.2 mm 1 m/s 716 mmHg 80%
    23:00 +25°C° 0.2 mm 1 m/s 716 mmHg 80%
    Voir plus